Location: Limerick
(52.6650°N, 8.6230°W)
Time: 22:10:17
(UTC+00:00)

ISS - Pass Details

Date: 09 November 2019
Orbit: 412 x 421 km, 51.6° (Epoch: 15 November)

Event Time Altitude Azimuth Distance (km) Brightness Sun altitude
Exits shadow 06:19:43 17° 242° (WSW) 1,142 -2.0 -13.1°
Maximum altitude 06:20:52 20° 214° (SW) 1,029 -2.0 -12.9°
Drops below altitude 10° 06:23:25 10° 164° (SSE) 1,499 -0.6 -12.5°
Sets 06:25:51 0° 147° (SSE) 2,358 0.8 -12.2°
